Regional Weather Roundup
Issued by NWS Northern Indiana

Home | Current Version | Previous Version | Graphics & Text | Print | Product List | Glossary On
Versions: 1 2 3 4 5 6 7 8 9 10 11 12 13 14 15 16 17 18 19 20 21 22 23 24 25 26 27 28 29 30 31 32 33 34 35 36 37 38 39 40 41 42 43 44 45 46 47 48 49 50
000
ASUS43 KIWX 190310
RWRIWX

KIWX WEATHER ROUNDUP
NATIONAL WEATHER SERVICE NORTHERN INDIANA
1100 PM EDT FRI APR 18 2014

NOTE: "FAIR" INDICATES FEW OR NO CLOUDS BELOW 12,000 FEET WITH NO
SIGNIFICANT WEATHER AND/OR OBSTRUCTIONS TO VISIBILITY.

* THESE STATIONS ARE NOT UNDER NWS QUALITY CONTROL. THEY ALSO MAY NOT
  REPORT WEATHER SUCH AS PRECIPITATION OR FOG.

INZ001>027-190400-
NORTHERN INDIANA

CITY           SKY/WX    TMP DP  RH WIND       PRES   REMARKS
GARY*          CLEAR     39  30  71 N10       30.38S
VALPARAISO     CLEAR     35  27  72 N7        30.35S WCI  29
MICHIGAN CITY* CLEAR     36  27  69 N6        30.36S
LAPORTE*       CLEAR     36  25  64 N7        30.35F
SOUTH BEND     CLEAR     37  23  56 N5        30.35R
GOSHEN         CLEAR     41  31  67 N6        30.32S
MONTICELLO*    CLEAR     44  35  69 NE7       30.32R
LOGANSPORT*    CLEAR     45  34  65 N10       30.33R
ROCHESTER*     CLEAR     45  34  65 N5        30.33R
WARSAW*        CLEAR     41  32  70 N5        30.32S
ANGOLA*        CLEAR     45  36  70 NW6       30.31R
FORT WAYNE     CLEAR     49  34  56 N14       30.31R
HUNTINGTON*    FAIR      48  36  63 N8        30.30R
PERU/GRISSOM   CLEAR     47  40  75 N12       30.31R
MARION*        CLEAR     50  35  56 N9        30.30R

$$
INZ028>050-190400-
CENTRAL INDIANA

CITY           SKY/WX    TMP DP  RH WIND       PRES   REMARKS
LAFAYETTE      CLEAR     46  36  68 NE7       30.32R
KOKOMO*        CLEAR     48  36  61 N9        30.31R
MUNCIE*        CLEAR     51  37  58 N10       30.28R
INDIANAPOLIS   CLEAR     56  36  47 N13       30.26R

$$
MIZ043>046-050>051-056>058-064>065-071>073-077>080-190400-
SOUTHWEST LOWER MICHIGAN

CITY           SKY/WX    TMP DP  RH WIND       PRES   REMARKS
BATTLE CREEK   CLEAR     43  29  57 N6        30.32S
BENTON HARBOR  CLEAR     35  26  69 CALM      30.34R
COLDWATER*     CLEAR     42  30  62 NW3       30.31S
HILLSDALE*     CLEAR     47  32  55 NW6       30.30R
HOLLAND        CLEAR     42  29  59 N7        30.35R
GRAND RAPIDS   CLEAR     44  27  51 N9        30.34R
KALAMAZOO      CLEAR     39  26  59 N7        30.32S
STURGIS*       CLEAR     43  32  65 CALM      30.31F
THREE RIVERS*  FAIR      42  29  60 CALM      30.33R

$$
OHZ001>008-015>018-024>025-190400-
NORTHWEST OHIO

CITY           SKY/WX    TMP DP  RH WIND       PRES   REMARKS
WAUSEON*       FAIR      46  43  87 N7        30.30R
DEFIANCE       CLEAR     52  33  48 N10       30.30R
FINDLAY        CLEAR     52  42  69 NE8       30.26R
TOLEDO EXPRESS CLEAR     48  41  76 N6        30.29R
TOLEDO METCALF CLEAR     46  40  79 CALM      30.30R
LIMA           CLEAR     55  36  48 NW9       30.26R

$$
&&



USA.gov is the U.S. government's official web portal to all federal, state and local government web resources and services.